Chippewa, MI

5:13 PM EST on December 08, 2019 (GMT -0500)
Chippewa County International

Weather History for KCIU - October, 2019

Change the Weather History Date:

Saturday, October 5, 2019

  Actual Average Record
Temperature  
Mean Temperature 43 °F -  
Max Temperature 54 °F 56 °F 80 °F (2005)
Min Temperature 33 °F 33 °F 25 °F (1989)
Degree Days  
Heating Degree Days 22    
Moisture  
Dew Point 41 °F    
Average Humidity 85    
Maximum Humidity 100    
Minimum Humidity 66    
Precipitation  
Precipitation 0.00 in - - ()
Sea Level Pressure  
Sea Level Pressure 30.20 in    
Wind  
Wind Speed 7 mph ()    
Max Wind Speed 25 mph    
Max Gust Speed 31 mph    
Visibility 9.7 miles    
Events Rain    
Averages and records for this station are not official NWS values.
T = Trace of Precipitation, MM = Missing Value Source: Averaged Metar Reports

Daily Weather History Graph

Daily Weather History Graph

Search for Another Location

Airport or City:

Astronomy

Oct. 05, 2019 Rise Set
Actual Time 7:41 AM EDT 7:10 PM EDT
Civil Twilight 7:11 AM EDT 7:40 PM EDT
Nautical Twilight 6:36 AM EDT 8:15 PM EDT
Astronomical Twilight 6:01 AM EDT 8:50 PM EDT
Moon 3:25 PM EDT (10/5) No Moon Set
Length of Visible Light 12h 29m
Length of Day
11h 29m
Waxing Crescent, 50% of the Moon is Illuminated
Oct 5
Waxing Crescent
Oct 5
First Quarter
Oct 13
Full
Oct 21
Last Quarter
Oct 27
New

Hourly Weather History & Observations

Time (EDT) Temp. Windchill Dew Point Humidity Pressure Visibility Wind Dir Wind Speed Gust Speed Precip Events Conditions
12:56 AM 35.1 °F - 34.0 °F 96% 30.44 in 9.0 mi Calm Calm - N/A   Clear
1:30 AM 35.6 °F - 35.6 °F 100% 30.42 in 2.0 mi Calm Calm - N/A   Clear
1:39 AM 35.6 °F - 33.8 °F 93% 30.42 in 10.0 mi Calm Calm - N/A   Clear
1:56 AM 35.1 °F - 34.0 °F 96% 30.44 in 10.0 mi Calm Calm - N/A   Clear
2:56 AM 33.1 °F - 30.9 °F 92% 30.44 in 10.0 mi Calm Calm - N/A   Clear
3:31 AM 33.8 °F 29.6 °F 32.0 °F 93% 30.41 in 10.0 mi ENE 4.6 mph - N/A   Mostly Cloudy
3:56 AM 37.0 °F - 36.0 °F 96% 30.41 in 10.0 mi Calm Calm - N/A   Overcast
4:56 AM 37.0 °F 34.5 °F 36.0 °F 96% 30.40 in 10.0 mi East 3.5 mph - N/A   Partly Cloudy
5:44 AM 39.2 °F - 37.4 °F 93% 30.38 in 10.0 mi Calm Calm - N/A   Mostly Cloudy
5:56 AM 39.0 °F - 37.9 °F 96% 30.39 in 10.0 mi Calm Calm - N/A   Overcast
6:56 AM 39.9 °F 37.8 °F 39.9 °F 100% 30.38 in 10.0 mi ESE 3.5 mph - N/A   Overcast
7:56 AM 39.0 °F 35.7 °F 39.0 °F 100% 30.36 in 10.0 mi SSE 4.6 mph - N/A   Overcast
8:56 AM 43.0 °F 39.5 °F 42.1 °F 97% 30.34 in 10.0 mi SSE 5.8 mph - N/A   Overcast
9:03 AM 42.8 °F 38.6 °F 42.8 °F 100% 30.32 in 10.0 mi SE 6.9 mph - N/A   Overcast
9:56 AM 46.0 °F 42.5 °F 43.0 °F 89% 30.33 in 10.0 mi SE 6.9 mph - N/A   Overcast
10:56 AM 48.9 °F - 43.0 °F 80% 30.29 in 10.0 mi SSE 12.7 mph - N/A   Overcast
11:56 AM 52.0 °F - 41.0 °F 66% 30.26 in 10.0 mi SE 20.7 mph 26.5 mph N/A   Overcast
12:56 PM 53.1 °F - 42.1 °F 66% 30.25 in 10.0 mi SSE 18.4 mph 23.0 mph N/A   Mostly Cloudy
1:48 PM 51.8 °F - 42.8 °F 71% 30.19 in 10.0 mi SSE 17.3 mph - N/A   Scattered Clouds
1:56 PM 52.0 °F - 43.0 °F 71% 30.21 in 10.0 mi SE 16.1 mph - N/A   Partly Cloudy
2:56 PM 52.0 °F - 43.0 °F 71% 30.16 in 10.0 mi SE 20.7 mph 27.6 mph N/A   Partly Cloudy
3:16 PM 51.8 °F - 42.8 °F 71% 30.13 in 10.0 mi SE 16.1 mph 21.9 mph N/A   Mostly Cloudy
3:41 PM 51.8 °F - 42.8 °F 71% 30.11 in 10.0 mi SE 19.6 mph - N/A   Partly Cloudy
3:56 PM 52.0 °F - 43.0 °F 71% 30.12 in 10.0 mi SE 18.4 mph - N/A   Scattered Clouds
4:15 PM 53.6 °F - 42.8 °F 67% 30.09 in 10.0 mi SSE 23.0 mph 27.6 mph N/A   Mostly Cloudy
4:56 PM 52.0 °F - 44.1 °F 74% 30.06 in 10.0 mi SE 23.0 mph 26.5 mph N/A   Overcast
5:56 PM 51.1 °F - 44.1 °F 77% 30.03 in 10.0 mi SE 25.3 mph 31.1 mph N/A   Overcast
6:56 PM 51.1 °F - 45.0 °F 80% 30.00 in 10.0 mi SE 18.4 mph 28.8 mph N/A   Overcast
7:56 PM 51.1 °F - 45.0 °F 80% 29.97 in 10.0 mi SSE 18.4 mph 24.2 mph 0.00 in Rain Light Rain
8:53 PM 50.0 °F - 46.4 °F 87% 29.95 in 10.0 mi SSE 18.4 mph 24.2 mph 0.00 in Rain Light Rain
8:56 PM 50.0 °F - 46.0 °F 86% 29.96 in 10.0 mi SSE 13.8 mph 24.2 mph 0.00 in Rain Light Rain
9:56 PM 50.0 °F - 46.9 °F 89% 29.90 in 10.0 mi SE 17.3 mph 24.2 mph 0.00 in   Overcast
10:24 PM 51.8 °F - 46.4 °F 82% 29.88 in 10.0 mi SSE 18.4 mph - N/A   Overcast
10:56 PM 51.1 °F - 46.9 °F 86% 29.88 in 10.0 mi SSE 16.1 mph 20.7 mph 0.00 in   Overcast
11:56 PM 52.0 °F - 46.0 °F 80% 29.84 in 10.0 mi SSE 17.3 mph 29.9 mph 0.00 in   Overcast